CAPE
0 0 0 0 0 0 0 0 0 0 0 0 0 0 0 0 0 0 0 0 0 0 0 0 0 0 0 0 0 0 0 0 0 0 0 0 0 0 0 0 0 0 0 0
0 0 0 0 0 0 0 0 0 0 0 0 0 0 0 0 0 0 0 0 0 0 0 0 0 0 0 0 0 0 0 0 0 0 0 0 0 0 0 0 0 0 0 0
0 0 0 0 0 0 0 0 0 0 0 0 0 0 0 0 0 0 0 0 0 0 0 0 0 0 0 0 0 0 0 0 0 0 0 0 0 0 0 0 0 0 0 0
0 0 0 0 0 0 0 0 0 0 0 0 0 0 0 0 0 0 0 0 0 0 0 0 0 0 0 0 0 0 0 0 0 0 0 0 0 0 0 0 0 0 0 0
0 0 0 0 0 0 0 0 0 0 0 0 0 0 0 0 0 0 0 0 0 0 0 0 0 0 0 0 0 0 0 0 0 0 0 0 0 0 0 0 0 0 0 0
0 0 0 0 0 0 0 0 0 0 0 0 0 0 0 0 0 0 0 0 0 0 0 0 0 0 0 0 0 0 0 0 0 0 0 0 0 0 0 0 0 0 0 0
0 0 0 0 0 0 0 0 0 0 0 0 0 0 0 0 0 0 0 0 0 0 0 0 0 0 0 0 0 0 0 0 0 0 0 0 0 0 0 0 0 0 0 0
0 0 0 0 0 0 0 0 0 0 0 0 0 0 0 0 0 0 0 0 0 0 0 0 0 0 0 0 0 0 0 0 0 0 0 0 0 0 0 0 0 0 0 0
0 0 0 0 0 0 0 0 0 0 0 0 0 0 0 0 0 0 0 0 0 0 0 0 0 0 0 0 0 0 0 0 0 0 0 0 0 0 0 0 0 0 0 0
0 0 0 0 0 0 0 0 0 0 0 0 0 0 0 0 0 0 0 0 0 0 0 0 0 0 0 0 0 0 0 0 0 0 0 0 0 0 0 0 0 0 0 0
0 0 0 0 0 0 0 0 0 0 0 0 0 0 0 0 0 0 0 0 0 0 0 0 0 0 0 0 0 0 0 0 0 0 0 0 0 0 0 0 0 0 0 0
0 0 0 0 0 0 0 0 0 0 0 0 0 0 0 0 0 0 0 0 0 0 0 0 0 0 0 0 0 0 0 0 0 0 0 0 0 0 0 0 0 0 0 0
0 0 0 0 0 0 0 0 0 0 0 0 0 0 0 0 0 0 0 0 0 0 0 0 0 0 0 0 0 0 0 0 0 0 0 0 0 0 0 0 0 0 0 0
0 0 0 0 0 0 0 0 0 0 0 0 0 0 0 0 0 0 0 0 0 0 0 0 0 0 0 0 0 0 0 0 0 0 0 0 0 0 0 0 0 0 0 0
0 0 0 0 0 0 0 0 0 0 0 0 0 0 0 0 0 0 0 0 0 0 0 0 0 0 0 0 0 0 0 0 0 0 0 0 0 0 0 0 0 0 0 0
0 0 0 0 0 0 0 0 0 0 0 0 0 0 0 0 0 0 0 0 0 0 0 0 0 0 0 0 0 0 0 0 0 0 0 0 0 0 0 0 0 0 0 0
0 0 0 0 0 0 0 0 0 0 0 0 0 0 0 0 0 0 0 0 0 0 0 0 0 0 0 0 0 0 0 0 0 0 0 0 0 0 0 0 0 0 0 0
0 0 0 0 0 0 0 0 0 0 0 0 0 0 0 0 0 0 0 0 0 0 0 0 0 0 0 0 0 0 0 0 0 0 0 0 0 0 0 0 0 0 0 0
0 0 0 0 0 0 0 0 0 0 0 0 0 0 0 0 0 0 0 0 0 0 0 0 0 0 0 0 0 0 0 0 0 0 0 0 0 0 0 0 0 0 0 0
0 0 0 0 0 0 0 0 0 0 0 0 0 0 0 0 0 0 0 0 0 0 0 0 0 0 0 0 0 0 0 0 0 0 0 0 0 0 0 0 0 0 0 0
0 0 0 0 0 0 0 0 0 0 0 0 0 0 0 0 0 0 0 0 0 0 0 0 0 0 0 0 0 0 0 0 0 0 0 0 0 0 0 0 0 0 0 0
0 0 0 0 0 0 0 0 0 0 0 0 0 0 0 0 0 0 0 0 0 0 0 0 0 0 0 0 0 0 0 0 0 0 0 0 0 0 0 0 0 0 0 0
0 0 0 0 0 0 0 0 0 0 0 0 0 0 0 0 0 0 0 0 0 0 0 0 0 0 0 0 0 0 0 0 0 0 0 0 0 0 0 0 0 0 0 0
0 0 0 0 0 0 0 0 0 0 0 0 0 0 0 0 0 0 0 0 0 0 0 0 0 0 0 0 0 0 0 0 0 0 0 0 0 0 0 0 0 0 0 0
0 0 0 0 0 0 0 0 0 0 0 0 0 0 0 0 0 0 0 0 0 0 0 0 0 0 0 0 0 0 0 0 0 0 0 0 0 0 0 0 0 0 0 0
0 0 0 0 0 0 0 0 0 0 0 0 0 0 0 0 0 0 0 0 0 0 0 0 0 0 0 0 0 0 0 0 0 0 0 0 0 0 0 0 0 0 0 0
0 0 0 0 0 0 0 0 0 0 0 0 0 0 0 0 0 0 0 0 0 0 0 0 0 0 0 0 0 0 0 0 0 0 0 0 0 0 0 0 0 0 0 0
CIN
0 0 0 0 0 0 0 0 0 0 0 0 0 0 0 0 0 0 0 0 0 0 0 0 0 0 0 0 0 0 0 0 0 0 0 0 0 0 0 0 0 0 0 0
0 0 0 0 0 0 0 0 0 0 0 0 0 0 0 0 0 0 0 0 0 0 0 0 0 0 0 0 0 0 0 0 0 0 0 0 0 0 0 0 0 0 0 0
0 0 0 0 0 0 0 0 0 0 0 0 0 0 0 0 0 0 0 0 0 0 0 0 0 0 0 0 0 0 0 0 0 0 0 0 0 0 0 0 0 0 0 0
0 0 0 0 0 0 0 0 0 0 0 0 0 0 0 0 0 0 0 0 0 0 0 0 0 0 0 0 0 0 0 0 0 0 0 0 0 0 0 0 0 0 0 0
0 0 0 0 0 0 0 0 0 0 0 0 0 0 0 0 0 0 0 0 0 0 0 0 0 0 0 0 0 0 0 0 0 0 0 0 0 0 0 0 0 0 0 0
0 0 0 0 0 0 0 0 0 0 0 0 0 0 0 0 0 0 0 0 0 0 0 0 0 0 0 0 0 0 0 0 0 0 0 0 0 0 0 0 0 0 0 0
0 0 0 0 0 0 0 0 0 0 0 0 0 0 0 0 0 0 0 0 0 0 0 0 0 0 0 0 0 0 0 0 0 0 0 0 0 0 0 0 0 0 0 0
0 0 0 0 0 0 0 0 0 0 0 0 0 0 0 0 0 0 0 0 0 0 0 0 0 0 0 0 0 0 0 0 0 0 0 0 0 0 0 0 0 0 0 0
0 0 0 0 0 0 0 0 0 0 0 0 0 0 0 0 0 0 0 0 0 0 0 0 0 0 0 0 0 0 0 0 0 0 0 0 0 0 0 0 0 0 0 0
0 0 0 0 0 0 0 0 0 0 0 0 0 0 0 0 0 0 0 0 0 0 0 0 0 0 0 0 0 0 0 0 0 0 0 0 0 0 0 0 0 0 0 0
0 0 0 0 0 0 0 0 0 0 0 0 0 0 0 0 0 0 0 0 0 0 0 0 0 0 0 0 0 0 0 0 0 0 0 0 0 0 0 0 0 0 0 0
0 0 0 0 0 0 0 0 0 0 0 0 0 0 0 0 0 0 0 0 0 0 0 0 0 0 0 0 0 0 0 0 0 0 0 0 0 0 0 0 0 0 0 0
0 0 0 0 0 0 0 0 0 0 0 0 0 0 0 0 0 0 0 0 0 0 0 0 0 0 0 0 0 0 0 0 0 0 0 0 0 0 0 0 0 0 0 0
0 0 0 0 0 0 0 0 0 0 0 0 0 0 0 0 0 0 0 0 0 0 0 0 0 0 0 0 0 0 0 0 0 0 0 0 0 0 0 0 0 0 0 0
0 0 0 0 0 0 0 0 0 0 0 0 0 0 0 0 0 0 0 0 0 0 0 0 0 0 0 0 0 0 0 0 0 0 0 0 0 0 0 0 0 0 0 0
0 0 0 0 0 0 0 0 0 0 0 0 0 0 0 0 0 0 0 0 0 0 0 0 0 0 0 0 0 0 0 0 0 0 0 0 0 0 0 0 0 0 0 0
0 0 0 0 0 0 0 0 0 0 0 0 0 0 0 0 0 0 0 0 0 0 0 0 0 0 0 0 0 0 0 0 0 0 0 0 0 0 0 0 0 0 0 0
0 0 0 0 0 0 0 0 0 0 0 0 0 0 0 0 0 0 0 0 0 0 0 0 0 0 0 0 0 0 0 0 0 0 0 0 0 0 0 0 0 0 0 0
0 0 0 0 0 0 0 0 0 0 0 0 0 0 0 0 0 0 0 0 0 0 0 0 0 0 0 0 0 0 0 0 0 0 0 0 0 0 0 0 0 0 0 0
0 0 0 0 0 0 0 0 0 0 0 0 0 0 0 0 0 0 0 0 0 0 0 0 0 0 0 0 0 0 0 0 0 0 0 0 0 0 0 0 0 0 0 0
0 0 0 0 0 0 0 0 0 0 0 0 0 0 0 0 0 0 0 0 0 0 0 0 0 0 0 0 0 0 0 0 0 0 0 0 0 0 0 0 0 0 0 0
0 0 0 0 0 0 0 0 0 0 0 0 0 0 0 0 0 0 0 0 0 0 0 0 0 0 0 0 0 0 0 0 0 0 0 0 0 0 0 0 0 0 0 0
0 0 0 0 0 0 0 0 0 0 0 0 0 0 0 0 0 0 0 0 0 0 0 0 0 0 0 0 0 0 0 0 0 0 0 0 0 0 0 0 0 0 0 0
0 0 0 0 0 0 0 0 0 0 0 0 0 0 0 0 0 0 0 0 0 0 0 0 0 0 0 0 0 0 0 0 0 0 0 0 0 0 0 0 0 0 0 0
0 0 0 0 0 0 0 0 0 0 0 0 0 0 0 0 0 0 0 0 0 0 0 0 0 0 0 0 0 0 0 0 0 0 0 0 0 0 0 0 0 0 0 0
0 0 0 0 0 0 0 0 0 0 0 0 0 0 0 0 0 0 0 0 0 0 0 0 0 0 0 0 0 0 0 0 0 0 0 0 0 0 0 0 0 0 0 0
0 0 0 0 0 0 0 0 0 0 0 0 0 0 0 0 0 0 0 0 0 0 0 0 0 0 0 0 0 0 0 0 0 0 0 0 0 0 0 0 0 0 0 0
Wind_Speed
38 34 33 29 35 39 44 47 49 46 41 35 27 22 15 14 15 19 19 17 14 11 9 6 4 2 4 6 8 10 13 15 17 19 21 23 25 27 28 30 32 33 34 36
40 35 36 39 36 35 47 48 55 50 50 35 28 24 19 16 17 21 19 17 15 13 10 8 5 1 2 4 7 9 12 15 16 19 20 22 24 26 28 30 31 33 35 36
47 36 35 44 42 40 40 43 46 58 48 34 31 29 22 18 19 21 20 19 17 15 12 9 6 3 1 3 6 9 12 13 15 17 19 21 23 26 28 30 31 33 36 37
42 32 46 48 38 42 45 49 51 48 41 37 34 30 23 22 22 21 20 19 17 14 11 8 6 4 2 3 6 9 11 12 14 16 18 21 23 26 28 30 32 33 35 37
40 43 43 40 39 38 43 60 48 49 43 37 32 30 34 26 22 22 21 19 18 15 12 9 8 5 3 3 6 8 9 11 13 15 17 20 23 25 28 30 32 34 33 37
35 47 56 55 38 30 30 62 47 46 45 37 27 36 33 22 21 20 20 18 17 15 12 11 8 6 3 2 5 6 8 10 12 14 17 20 22 25 27 29 30 33 34 35
48 47 48 36 28 24 40 54 34 34 33 30 32 32 21 21 20 20 22 20 17 16 16 13 9 7 3 3 4 6 8 10 11 14 16 18 21 23 26 29 30 32 33 34
44 48 64 30 26 34 39 35 35 33 27 31 29 27 21 21 21 23 24 21 18 17 14 12 10 7 3 2 4 6 8 9 11 14 16 18 21 23 24 27 30 32 33 35
44 50 33 30 36 36 39 40 35 33 29 24 26 26 22 22 22 24 24 22 20 18 15 12 10 6 3 2 4 6 7 8 11 14 16 18 20 22 24 26 29 32 34 36
42 49 48 41 36 33 33 37 35 32 29 23 22 23 22 22 23 24 24 23 20 19 16 13 9 5 3 4 4 5 6 8 10 13 16 18 19 21 23 26 29 32 34 36
47 54 41 43 45 42 39 38 36 34 29 21 19 21 23 24 24 24 24 22 22 20 16 12 9 6 4 4 4 4 5 7 10 12 14 17 19 20 23 25 27 30 32 34
53 47 44 48 45 44 44 42 33 32 28 22 19 21 25 24 24 25 24 22 21 18 15 12 10 6 5 5 4 3 4 6 9 11 14 16 18 20 23 24 27 29 31 33
61 54 54 52 52 50 48 46 40 32 29 24 23 23 27 25 25 24 24 24 22 19 15 13 10 8 7 5 4 3 3 5 8 10 13 15 18 20 23 24 25 28 30 32
57 54 58 53 49 47 47 44 36 33 30 25 22 22 27 25 24 25 25 23 20 17 15 13 10 9 8 6 4 2 3 5 7 10 12 15 17 19 22 24 27 28 28 31
55 55 58 57 56 53 44 38 36 31 28 25 24 24 27 27 25 24 23 21 19 17 14 13 11 9 8 6 4 2 2 5 7 9 12 14 16 19 22 24 26 27 29 30
57 56 57 57 55 51 43 40 38 34 28 25 24 25 28 27 23 23 23 22 21 17 15 13 12 10 8 6 4 1 2 4 6 9 12 14 16 19 21 23 25 26 28 30
60 60 55 55 54 51 47 38 36 32 28 26 24 23 25 26 24 24 23 21 18 16 16 14 12 10 8 7 5 2 1 4 6 9 11 13 16 17 19 21 23 24 26 27
56 55 50 49 51 48 44 37 33 31 29 24 23 24 26 27 26 24 22 19 16 15 14 12 12 10 9 7 5 2 1 3 5 8 10 12 14 16 18 19 21 23 24 25
55 57 53 50 50 46 42 36 32 28 25 24 24 26 26 26 25 23 21 20 19 18 15 12 12 11 9 7 5 2 0 3 6 8 10 11 13 15 16 18 19 21 22 24
58 57 55 53 45 43 38 33 28 27 25 23 24 25 26 25 24 23 22 21 20 17 15 14 13 11 9 8 6 3 1 2 5 6 8 10 11 13 15 16 18 19 21 23
53 50 51 47 41 38 35 30 28 28 26 25 25 25 25 23 22 21 21 21 18 15 15 15 13 11 9 8 6 4 2 3 4 5 7 8 10 12 13 15 16 18 19 21
42 43 43 42 39 33 33 30 29 28 27 26 24 24 23 22 21 21 20 19 17 16 15 13 12 11 10 9 6 4 3 3 4 5 6 7 9 11 12 13 15 16 18 19
41 40 38 37 37 33 31 30 30 28 27 26 24 23 22 21 21 21 20 17 17 16 15 13 13 12 11 8 7 5 4 4 4 4 5 6 8 10 11 12 14 15 16 18
37 34 32 31 29 29 31 31 30 29 27 25 24 22 21 20 19 20 17 16 18 17 14 13 14 13 11 9 7 6 5 4 4 5 5 6 8 9 10 12 13 14 15 16
32 28 27 24 25 27 25 23 24 26 27 27 25 24 22 20 19 18 16 17 17 16 14 14 14 13 10 9 7 6 5 4 4 5 5 6 7 8 10 11 13 13 14 15
25 28 28 27 26 23 22 21 22 24 25 26 26 24 22 20 17 17 15 16 17 16 14 14 13 12 10 9 7 6 5 5 5 5 6 7 8 9 10 11 12 13 13 14
27 25 21 25 26 24 22 22 22 24 24 23 23 23 22 20 18 17 16 16 16 15 13 13 13 12 10 8 7 6 5 5 5 6 6 7 8 9 10 11 12 12 13 14
Wind_Direction
258 252 251 255 251 246 245 246 245 247 252 252 254 250 233 227 210 201 205 209 202 205 210 227 246 293 341 7 10 7 1 359 359 1 2 2 1 2 2 3 2 2 1 1
256 254 250 250 251 250 245 247 247 251 251 259 258 254 246 225 208 200 203 201 204 208 213 219 217 233 360 14 10 6 3 359 0 360 2 2 3 2 3 3 2 2 2 1
251 256 254 250 246 248 251 249 250 245 250 255 253 248 242 227 207 202 200 201 206 206 203 208 191 176 109 34 16 8 3 3 4 4 5 5 4 3 1 360 1 0 360 359
255 256 249 252 251 250 253 251 248 251 255 254 252 251 243 232 222 212 207 208 210 200 209 200 183 165 102 37 17 11 6 9 9 10 9 7 4 1 360 360 359 359 360 -0
255 251 255 256 251 249 250 247 254 254 256 256 254 253 250 240 227 211 205 198 191 196 192 181 171 163 115 40 19 12 16 20 17 16 12 8 3 1 1 360 360 360 2 0
258 249 247 247 256 260 264 249 254 253 251 252 247 246 249 228 215 212 199 194 196 200 189 176 177 158 129 56 29 33 40 33 29 22 14 9 7 4 3 3 2 2 3 4
247 253 254 260 257 253 251 241 263 256 253 246 241 250 244 227 220 206 196 200 206 190 178 180 174 158 146 87 63 57 52 43 34 26 18 14 10 7 5 4 4 4 6 7
246 247 244 256 253 245 256 269 274 269 265 251 248 247 238 212 206 202 201 204 192 185 189 186 171 164 153 111 68 71 58 42 32 26 20 16 12 9 8 7 6 6 6 6
245 247 264 255 258 262 265 269 269 268 267 265 248 239 221 208 204 200 196 193 192 188 186 181 178 175 158 108 90 78 61 42 31 25 19 16 13 12 10 9 7 5 4 3
258 250 252 256 259 263 267 266 270 270 267 257 250 229 216 211 206 202 196 192 190 188 184 183 192 187 158 126 100 86 61 42 30 25 19 17 16 15 12 10 8 6 5 4
256 251 256 254 255 260 265 267 270 266 262 256 243 222 212 210 206 200 193 193 189 185 186 190 189 185 162 136 113 86 55 39 26 22 19 17 17 15 13 14 12 8 7 7
248 252 260 258 261 254 256 259 265 261 259 248 230 219 214 210 206 197 195 194 193 193 190 186 183 177 163 144 127 93 52 36 25 20 19 16 16 15 15 15 14 13 12 11
249 256 258 258 257 253 251 248 258 259 253 246 241 225 210 206 205 198 197 191 189 186 188 181 179 174 163 152 135 103 54 36 27 21 18 14 14 10 8 12 14 14 13 13
254 258 255 252 252 258 252 253 257 251 249 244 234 223 209 203 201 199 194 189 191 190 184 181 178 174 165 157 142 105 46 36 29 22 17 14 14 10 10 8 8 9 14 15
250 254 254 254 255 252 252 251 249 246 243 240 230 218 207 205 198 196 193 190 190 188 185 183 182 178 170 161 154 126 47 29 26 23 16 14 13 12 9 9 9 10 11 13
253 255 255 250 247 247 248 245 244 241 237 232 225 217 208 203 201 197 193 190 187 191 190 188 184 178 173 169 165 141 31 30 29 21 14 9 9 7 6 7 9 10 11 12
252 249 248 246 243 241 241 242 242 237 232 227 222 211 204 203 199 197 195 196 197 192 190 186 185 179 178 177 173 172 23 24 26 18 11 6 5 6 7 7 9 11 12 14
246 246 248 247 244 242 241 241 238 233 229 223 212 203 199 196 196 196 198 198 202 203 197 194 184 182 184 180 182 188 5 19 16 7 10 4 4 6 7 8 10 11 12 14
243 242 244 246 240 238 238 238 235 228 222 213 206 203 201 201 198 197 196 200 203 201 202 196 186 183 185 187 188 202 295 2 360 4 2 3 3 6 6 8 10 11 12 13
241 242 242 239 239 235 236 233 227 222 218 208 207 203 203 203 200 200 201 201 199 207 195 189 185 190 192 190 191 205 260 339 351 355 358 359 3 4 5 8 9 10 11 12
236 238 234 234 234 234 230 226 220 218 211 205 197 197 197 200 203 201 204 208 214 202 191 187 192 197 196 192 199 214 256 317 338 344 351 356 359 1 4 6 8 9 9 10
230 233 233 232 230 229 226 222 218 212 205 204 205 201 201 206 207 209 210 208 209 198 198 198 201 195 199 195 209 223 243 301 324 338 346 351 355 358 1 4 5 7 7 9
226 229 230 227 225 224 222 219 214 207 204 203 200 201 201 203 203 205 214 221 206 200 201 207 204 197 192 203 215 223 257 285 307 322 334 343 349 354 357 360 2 4 5 7
225 228 231 228 224 220 217 218 214 213 211 209 207 205 204 210 221 232 229 205 199 197 203 203 196 194 197 218 221 236 257 277 300 317 327 336 343 349 353 357 358 0 2 4
231 233 230 226 221 222 216 213 211 214 216 220 220 218 218 218 211 214 216 212 202 202 211 203 195 194 211 220 225 239 254 268 293 310 319 329 336 343 348 352 353 355 358 360
232 233 229 224 222 219 215 210 214 216 218 221 225 225 227 228 225 218 215 209 204 208 210 205 207 210 219 215 230 243 253 271 290 305 315 326 333 338 342 345 348 350 353 356
232 231 229 226 227 225 222 219 215 217 218 218 222 226 224 224 223 221 218 212 211 213 211 208 207 208 214 226 238 244 261 277 291 304 315 323 328 332 336 339 342 346 349 351